Time,TemperatureF,DewpointF,PressureIn,WindDirection,WindDirectionDegrees,WindSpeedMPH,WindSpeedGustMPH,Humidity,HourlyPrecipIn,Conditions,Clouds,dailyrainin,SoftwareType,DateUTC
2013-10-12 00:06:00,46.6,43.0,28.21,ESE,115,0.0,-999.0,88,-99.99,,,0.00,weatherlink.com 1.10,2013-10-12 04:06:00,
2013-10-12 00:21:00,47.0,44.0,28.21,ESE,115,0.0,-999.0,89,-99.99,,,0.00,weatherlink.com 1.10,2013-10-12 04:21:00,
2013-10-12 00:36:00,47.8,45.0,28.21,ESE,115,0.0,-999.0,89,-99.99,,,0.00,weatherlink.com 1.10,2013-10-12 04:36:00,
2013-10-12 00:51:00,47.4,44.0,28.21,ESE,115,0.0,-999.0,88,-99.99,,,0.00,weatherlink.com 1.10,2013-10-12 04:51:00,
2013-10-12 01:07:00,45.1,42.0,28.21,ESE,115,0.0,-999.0,89,-99.99,,,0.00,weatherlink.com 1.10,2013-10-12 05:07:00,
2013-10-12 01:22:00,45.8,43.0,28.21,ESE,115,0.0,-999.0,89,-99.99,,,0.00,weatherlink.com 1.10,2013-10-12 05:22:00,
2013-10-12 01:37:00,45.9,43.0,28.21,ESE,115,0.0,-999.0,89,-99.99,,,0.00,weatherlink.com 1.10,2013-10-12 05:37:00,
2013-10-12 01:52:00,45.6,43.0,28.21,ESE,115,0.0,-999.0,89,-99.99,,,0.00,weatherlink.com 1.10,2013-10-12 05:52:00,
2013-10-12 02:07:00,45.0,42.0,28.21,ESE,115,0.0,-999.0,89,-99.99,,,0.00,weatherlink.com 1.10,2013-10-12 06:07:00,
2013-10-12 02:22:00,44.7,42.0,28.20,ESE,115,0.0,-999.0,89,-99.99,,,0.00,weatherlink.com 1.10,2013-10-12 06:22:00,
2013-10-12 02:37:00,44.3,41.0,28.21,ESE,115,0.0,-999.0,89,-99.99,,,0.00,weatherlink.com 1.10,2013-10-12 06:37:00,
2013-10-12 02:52:00,43.8,41.0,28.21,ESE,115,0.0,-999.0,89,-99.99,,,0.00,weatherlink.com 1.10,2013-10-12 06:52:00,
2013-10-12 03:07:00,44.0,41.0,28.20,ESE,115,0.0,-999.0,89,-99.99,,,0.00,weatherlink.com 1.10,2013-10-12 07:07:00,
2013-10-12 03:22:00,44.0,41.0,28.21,ESE,115,0.0,-999.0,89,-99.99,,,0.00,weatherlink.com 1.10,2013-10-12 07:22:00,
2013-10-12 03:37:00,44.0,41.0,28.21,ESE,115,0.0,-999.0,89,-99.99,,,0.00,weatherlink.com 1.10,2013-10-12 07:37:00,
2013-10-12 03:52:00,44.4,41.0,28.21,ESE,115,0.0,-999.0,89,-99.99,,,0.00,weatherlink.com 1.10,2013-10-12 07:52:00,
2013-10-12 04:07:00,43.9,41.0,28.22,ESE,115,0.0,-999.0,89,-99.99,,,0.00,weatherlink.com 1.10,2013-10-12 08:07:00,
2013-10-12 04:22:00,43.3,40.0,28.22,ESE,115,0.0,-999.0,89,-99.99,,,0.00,weatherlink.com 1.10,2013-10-12 08:22:00,
2013-10-12 04:37:00,42.9,40.0,28.21,ESE,115,0.0,-999.0,89,-99.99,,,0.00,weatherlink.com 1.10,2013-10-12 08:37:00,
2013-10-12 04:52:00,43.1,40.0,28.22,ESE,115,0.0,-999.0,89,-99.99,,,0.00,weatherlink.com 1.10,2013-10-12 08:52:00,
2013-10-12 05:07:00,42.5,40.0,28.22,ESE,115,0.0,-999.0,89,-99.99,,,0.00,weatherlink.com 1.10,2013-10-12 09:07:00,
2013-10-12 05:22:00,42.4,39.0,28.22,ESE,115,0.0,-999.0,89,-99.99,,,0.00,weatherlink.com 1.10,2013-10-12 09:22:00,
2013-10-12 05:37:00,42.3,39.0,28.22,ESE,115,0.0,-999.0,89,-99.99,,,0.00,weatherlink.com 1.10,2013-10-12 09:37:00,
2013-10-12 05:52:00,42.2,39.0,28.23,ESE,115,0.0,-999.0,89,-99.99,,,0.00,weatherlink.com 1.10,2013-10-12 09:52:00,
2013-10-12 06:07:00,42.2,39.0,28.23,ESE,115,0.0,-999.0,89,-99.99,,,0.00,weatherlink.com 1.10,2013-10-12 10:07:00,
2013-10-12 06:22:00,42.7,40.0,28.23,ESE,115,0.0,-999.0,89,-99.99,,,0.00,weatherlink.com 1.10,2013-10-12 10:22:00,
2013-10-12 06:37:00,42.5,40.0,28.23,ESE,115,0.0,-999.0,89,-99.99,,,0.00,weatherlink.com 1.10,2013-10-12 10:37:00,
2013-10-12 06:52:00,42.4,39.0,28.24,ESE,115,0.0,-999.0,89,-99.99,,,0.00,weatherlink.com 1.10,2013-10-12 10:52:00,
2013-10-12 07:07:00,42.4,39.0,28.24,ESE,115,0.0,-999.0,89,-99.99,,,0.00,weatherlink.com 1.10,2013-10-12 11:07:00,
2013-10-12 07:22:00,43.3,40.0,28.25,ESE,115,0.0,-999.0,89,-99.99,,,0.00,weatherlink.com 1.10,2013-10-12 11:22:00,
2013-10-12 07:37:00,43.7,41.0,28.25,ESE,115,0.0,-999.0,89,-99.99,,,0.00,weatherlink.com 1.10,2013-10-12 11:37:00,
2013-10-12 07:52:00,44.2,41.0,28.26,ESE,116,0.0,-999.0,89,-99.99,,,0.00,weatherlink.com 1.10,2013-10-12 11:52:00,
2013-10-12 08:07:00,45.1,42.0,28.26,ESE,121,0.0,-999.0,89,-99.99,,,0.00,weatherlink.com 1.10,2013-10-12 12:07:00,
2013-10-12 08:22:00,47.0,44.0,28.26,ESE,123,0.0,-999.0,89,-99.99,,,0.00,weatherlink.com 1.10,2013-10-12 12:22:00,
2013-10-12 08:37:00,49.1,46.0,28.26,SE,125,0.0,-999.0,89,-99.99,,,0.00,weatherlink.com 1.10,2013-10-12 12:37:00,
2013-10-12 08:52:00,51.5,48.0,28.26,SE,142,0.0,-999.0,88,-99.99,,,0.00,weatherlink.com 1.10,2013-10-12 12:52:00,
2013-10-12 09:07:00,53.6,50.0,28.26,SSE,159,0.0,-999.0,87,-99.99,,,0.00,weatherlink.com 1.10,2013-10-12 13:07:00,
2013-10-12 09:22:00,55.4,50.0,28.26,SSE,161,0.0,-999.0,83,-99.99,,,0.00,weatherlink.com 1.10,2013-10-12 13:22:00,
2013-10-12 09:37:00,57.7,50.0,28.26,SSE,155,0.0,-999.0,76,-99.99,,,0.00,weatherlink.com 1.10,2013-10-12 13:37:00,
2013-10-12 09:52:00,60.3,50.0,28.26,SE,135,0.0,-999.0,69,-99.99,,,0.00,weatherlink.com 1.10,2013-10-12 13:52:00,
2013-10-12 10:08:00,62.5,50.0,28.26,SE,141,0.0,-999.0,64,-99.99,,,0.00,weatherlink.com 1.10,2013-10-12 14:08:00,
2013-10-12 10:23:00,64.4,50.0,28.26,SE,130,0.0,-999.0,59,-99.99,,,0.00,weatherlink.com 1.10,2013-10-12 14:23:00,
2013-10-12 10:38:00,65.7,50.0,28.25,SSE,156,0.0,-999.0,58,-99.99,,,0.00,weatherlink.com 1.10,2013-10-12 14:38:00,
2013-10-12 10:53:00,66.6,49.0,28.26,SE,126,4.0,-999.0,53,-99.99,,,0.00,weatherlink.com 1.10,2013-10-12 14:53:00,
2013-10-12 11:08:00,67.7,48.0,28.25,SE,140,0.0,-999.0,50,-99.99,,,0.00,weatherlink.com 1.10,2013-10-12 15:08:00,
2013-10-12 11:23:00,68.4,50.0,28.25,SSE,153,0.0,-999.0,52,-99.99,,,0.00,weatherlink.com 1.10,2013-10-12 15:23:00,
2013-10-12 11:38:00,69.7,48.0,28.25,ESE,111,0.0,-999.0,47,-99.99,,,0.00,weatherlink.com 1.10,2013-10-12 15:38:00,
2013-10-12 11:53:00,70.2,46.0,28.25,ESE,120,0.0,-999.0,42,-99.99,,,0.00,weatherlink.com 1.10,2013-10-12 15:53:00,
2013-10-12 12:08:00,70.8,45.0,28.25,ESE,113,0.0,-999.0,40,-99.99,,,0.00,weatherlink.com 1.10,2013-10-12 16:08:00,
2013-10-12 12:23:00,71.4,43.0,28.25,SE,126,5.0,-999.0,36,-99.99,,,0.00,weatherlink.com 1.10,2013-10-12 16:23:00,
2013-10-12 12:38:00,72.0,45.0,28.25,ESE,116,0.0,-999.0,38,-99.99,,,0.00,weatherlink.com 1.10,2013-10-12 16:38:00,
2013-10-12 12:53:00,72.6,44.0,28.25,East,89,4.0,-999.0,36,-99.99,,,0.00,weatherlink.com 1.10,2013-10-12 16:53:00,
2013-10-12 13:08:00,72.8,45.0,28.24,ESE,116,0.0,-999.0,37,-99.99,,,0.00,weatherlink.com 1.10,2013-10-12 17:08:00,
2013-10-12 13:23:00,73.0,44.0,28.24,ESE,109,0.0,-999.0,35,-99.99,,,0.00,weatherlink.com 1.10,2013-10-12 17:23:00,
2013-10-12 13:38:00,73.0,41.0,28.23,East,101,2.0,-999.0,32,-99.99,,,0.00,weatherlink.com 1.10,2013-10-12 17:38:00,
2013-10-12 13:53:00,72.9,40.0,28.23,ESE,105,2.0,-999.0,31,-99.99,,,0.00,weatherlink.com 1.10,2013-10-12 17:53:00,
2013-10-12 14:08:00,73.4,48.0,28.23,ENE,59,3.0,-999.0,40,-99.99,,,0.00,weatherlink.com 1.10,2013-10-12 18:08:00,
2013-10-12 14:23:00,73.8,47.0,28.23,ESE,121,0.0,-999.0,39,-99.99,,,0.00,weatherlink.com 1.10,2013-10-12 18:23:00,
2013-10-12 14:38:00,73.7,47.0,28.22,ESE,113,1.0,-999.0,39,-99.99,,,0.00,weatherlink.com 1.10,2013-10-12 18:38:00,
2013-10-12 14:53:00,73.9,48.0,28.23,East,101,0.0,-999.0,40,-99.99,,,0.00,weatherlink.com 1.10,2013-10-12 18:53:00,
2013-10-12 15:08:00,74.1,48.0,28.22,ENE,78,2.0,-999.0,40,-99.99,,,0.00,weatherlink.com 1.10,2013-10-12 19:08:00,
2013-10-12 15:23:00,74.6,49.0,28.22,ESE,122,0.0,-999.0,40,-99.99,,,0.00,weatherlink.com 1.10,2013-10-12 19:23:00,
2013-10-12 15:38:00,74.4,48.0,28.22,ESE,103,0.0,-999.0,39,-99.99,,,0.00,weatherlink.com 1.10,2013-10-12 19:38:00,
2013-10-12 15:53:00,74.7,47.0,28.22,ESE,119,0.0,-999.0,38,-99.99,,,0.00,weatherlink.com 1.10,2013-10-12 19:53:00,
2013-10-12 16:08:00,74.7,48.0,28.22,ESE,109,0.0,-999.0,39,-99.99,,,0.00,weatherlink.com 1.10,2013-10-12 20:08:00,
2013-10-12 16:23:00,74.9,49.0,28.22,East,93,0.0,-999.0,40,-99.99,,,0.00,weatherlink.com 1.10,2013-10-12 20:23:00,
2013-10-12 16:38:00,74.6,51.0,28.21,East,96,0.0,-999.0,44,-99.99,,,0.00,weatherlink.com 1.10,2013-10-12 20:38:00,
2013-10-12 16:53:00,74.8,51.0,28.21,East,90,0.0,-999.0,44,-99.99,,,0.00,weatherlink.com 1.10,2013-10-12 20:53:00,
2013-10-12 17:08:00,74.7,52.0,28.22,East,98,0.0,-999.0,45,-99.99,,,0.00,weatherlink.com 1.10,2013-10-12 21:08:00,
2013-10-12 17:23:00,74.2,51.0,28.22,ESE,109,0.0,-999.0,45,-99.99,,,0.00,weatherlink.com 1.10,2013-10-12 21:23:00,
2013-10-12 17:38:00,73.8,50.0,28.21,ESE,106,0.0,-999.0,44,-99.99,,,0.00,weatherlink.com 1.10,2013-10-12 21:38:00,
2013-10-12 17:53:00,72.9,49.0,28.21,East,90,0.0,-999.0,43,-99.99,,,0.00,weatherlink.com 1.10,2013-10-12 21:53:00,
2013-10-12 18:08:00,71.2,47.0,28.21,East,101,0.0,-999.0,43,-99.99,,,0.00,weatherlink.com 1.10,2013-10-12 22:08:00,
2013-10-12 18:23:00,69.7,47.0,28.22,East,101,0.0,-999.0,44,-99.99,,,0.00,weatherlink.com 1.10,2013-10-12 22:23:00,
2013-10-12 18:38:00,68.0,47.0,28.22,ESE,122,0.0,-999.0,47,-99.99,,,0.00,weatherlink.com 1.10,2013-10-12 22:38:00,
2013-10-12 18:53:00,65.9,47.0,28.22,ESE,103,0.0,-999.0,50,-99.99,,,0.00,weatherlink.com 1.10,2013-10-12 22:53:00,
2013-10-12 19:08:00,65.0,45.0,28.22,ESE,113,0.0,-999.0,49,-99.99,,,0.00,weatherlink.com 1.10,2013-10-12 23:08:00,
2013-10-12 19:23:00,65.0,44.0,28.23,ESE,113,0.0,-999.0,47,-99.99,,,0.00,weatherlink.com 1.10,2013-10-12 23:23:00,
2013-10-12 19:38:00,64.8,43.0,28.23,ESE,117,0.0,-999.0,46,-99.99,,,0.00,weatherlink.com 1.10,2013-10-12 23:38:00,
2013-10-12 19:53:00,64.5,43.0,28.23,ESE,117,1.0,-999.0,46,-99.99,,,0.00,weatherlink.com 1.10,2013-10-12 23:53:00,
2013-10-12 20:08:00,63.3,44.0,28.23,SE,129,0.0,-999.0,50,-99.99,,,0.00,weatherlink.com 1.10,2013-10-13 00:08:00,
2013-10-12 20:23:00,60.7,44.0,28.24,SE,132,0.0,-999.0,55,-99.99,,,0.00,weatherlink.com 1.10,2013-10-13 00:23:00,
2013-10-12 20:38:00,60.0,44.0,28.24,SE,132,0.0,-999.0,56,-99.99,,,0.00,weatherlink.com 1.10,2013-10-13 00:38:00,
2013-10-12 20:53:00,60.3,44.0,28.24,ESE,117,0.0,-999.0,55,-99.99,,,0.00,weatherlink.com 1.10,2013-10-13 00:53:00,
2013-10-12 21:09:00,58.6,44.0,28.25,ESE,117,0.0,-999.0,59,-99.99,,,0.00,weatherlink.com 1.10,2013-10-13 01:09:00,
2013-10-12 21:24:00,58.2,45.0,28.25,ESE,117,0.0,-999.0,61,-99.99,,,0.00,weatherlink.com 1.10,2013-10-13 01:24:00,
2013-10-12 21:39:00,57.5,44.0,28.25,ESE,117,0.0,-999.0,61,-99.99,,,0.00,weatherlink.com 1.10,2013-10-13 01:39:00,
2013-10-12 21:54:00,57.5,44.0,28.25,ESE,117,0.0,-999.0,62,-99.99,,,0.00,weatherlink.com 1.10,2013-10-13 01:54:00,
2013-10-12 22:09:00,56.5,45.0,28.25,ESE,119,0.0,-999.0,65,-99.99,,,0.00,weatherlink.com 1.10,2013-10-13 02:09:00,
2013-10-12 22:24:00,56.2,44.0,28.26,SE,127,0.0,-999.0,65,-99.99,,,0.00,weatherlink.com 1.10,2013-10-13 02:24:00,
2013-10-12 22:39:00,56.3,45.0,28.26,SE,130,0.0,-999.0,65,-99.99,,,0.00,weatherlink.com 1.10,2013-10-13 02:39:00,
2013-10-12 22:54:00,55.7,45.0,28.26,SE,130,0.0,-999.0,67,-99.99,,,0.00,weatherlink.com 1.10,2013-10-13 02:54:00,
2013-10-12 23:09:00,55.6,44.0,28.26,SE,129,0.0,-999.0,66,-99.99,,,0.00,weatherlink.com 1.10,2013-10-13 03:09:00,
2013-10-12 23:24:00,55.4,45.0,28.26,SE,134,0.0,-999.0,67,-99.99,,,0.00,weatherlink.com 1.10,2013-10-13 03:24:00,
2013-10-12 23:39:00,55.7,44.0,28.27,SE,142,0.0,-999.0,66,-99.99,,,0.00,weatherlink.com 1.10,2013-10-13 03:39:00,
2013-10-12 23:54:00,56.4,44.0,28.26,SE,144,0.0,-999.0,64,-99.99,,,0.00,weatherlink.com 1.10,2013-10-13 03:54:00,